Location: Star Dogged Moon Observatory
(29.7756°N, 82.0783°W)
Time: 00:55:36
(UTC-05:00)

Amateur Radio Satellites - All Passes

Search period start: 20 December 2014 00:25
Search period end: 21 December 2014 00:25
Location: Star Dogged Moon Observatory, 29.7756°N, 82.0783°W

Satellite Date Start Highest point End Downlink Frequencies (MHz)
Time Altitude Azimuth
TIGRISAT 20 Dec 00:27:14 00:29:03 12° 293° (WNW) 00:30:53 435.000
PCSat 20 Dec 00:34:54 00:40:05 48° 250° (WSW) 00:45:15 145.827
POPSAT HIP 1 20 Dec 00:38:30 00:39:59 12° 292° (WNW) 00:41:28 437.405
YUBILEINY 20 Dec 00:39:17 00:48:01 73° 277° (W) 00:56:44 435.215
Oscar 19 20 Dec 00:40:47 00:42:10 11° 93° (E) 00:43:34 437.125/150
TISAT 1 20 Dec 00:55:26 00:58:25 19° 264° (W) 01:01:24 437.305
SPROUT 20 Dec 00:55:34 00:58:49 21° 264° (W) 01:02:05 437.525
O/OREOS (USA 219) 20 Dec 01:01:15 01:05:42 77° 288° (WNW) 01:10:10 437.305
SWISSCUBE 20 Dec 01:15:46 01:20:34 86° 76° (ENE) 01:25:23 437.505
ITUPSAT 1 20 Dec 01:15:53 01:20:41 78° 76° (ENE) 01:25:29 437.325
KKS-1 20 Dec 01:23:37 01:26:10 15° 69° (ENE) 01:28:42 437.445
AUBIESAT-1 20 Dec 01:25:36 01:30:13 56° 71° (ENE) 01:35:01 437.475
BEESAT 20 Dec 01:41:08 01:45:47 52° 259° (W) 01:50:28 436.000
M-CUBED/EXP-1 PRIME 20 Dec 01:50:31 01:55:12 69° 255° (WSW) 02:00:06 437.505
VERMONT LUNAR 20 Dec 02:09:05 02:12:18 34° 144° (SE) 02:15:32 437.305
Oscar 19 20 Dec 02:16:40 02:21:47 62° 285° (WNW) 02:26:54 437.125/150
PHONESAT 2.4 20 Dec 02:19:12 02:22:13 25° 142° (SE) 02:25:15 2401.200-2431.200
Gurwin Techsat 1B 20 Dec 02:21:23 02:25:53 28° 97° (E) 02:30:20 435.225
ITAMSAT 1 20 Dec 02:30:32 02:35:38 60° 101° (ESE) 02:40:44 435.822/435.867
HORYU 2 20 Dec 02:50:33 02:53:35 18° 96° (E) 02:56:36 437.375
STARS 20 Dec 02:56:06 03:00:24 59° 259° (W) 03:04:44 437.465
KKS-1 20 Dec 02:58:25 03:02:27 35° 261° (W) 03:06:31 437.445
AUBIESAT-1 20 Dec 03:03:39 03:05:24 12° 263° (W) 03:07:09 437.475
AO-7 20 Dec 03:04:58 03:08:46 14° 94° (E) 03:12:33 29.400- 29.500
VERMONT LUNAR 20 Dec 03:47:20 03:50:36 35° 337° (NNW) 03:53:53 437.305
PHONESAT 2.4 20 Dec 03:57:17 04:00:47 45° 335° (NNW) 04:04:17 2401.200-2431.200
Gurwin Techsat 1B 20 Dec 04:01:17 04:05:41 27° 290° (WNW) 04:10:04 435.225
AIST 1 20 Dec 04:02:24 04:06:36 59° 83° (E) 04:10:47
MOZHAYETS 4 20 Dec 04:02:32 04:06:20 26° 72° (ENE) 04:10:09
ITAMSAT 1 20 Dec 04:12:30 04:14:33 12° 294° (WNW) 04:16:37 435.822/435.867
HORYU 2 20 Dec 04:26:16 04:30:13 31° 288° (WNW) 04:34:10 437.375
GONETS M04 20 Dec 04:40:29 04:46:47 22° 83° (E) 04:53:05
AO-7 20 Dec 04:53:48 05:02:13 88° 287° (WNW) 05:10:34 29.400- 29.500
PRISM 20 Dec 05:03:36 05:06:07 16° 69° (ENE) 05:08:38 437.425
STRAND 1 20 Dec 05:20:34 05:21:48 11° 65° (ENE) 05:23:03 437.568
CUBESAT XI-V 20 Dec 05:25:31 05:27:38 13° 68° (ENE) 05:29:45 437.345
VERMONT LUNAR 20 Dec 05:27:27 05:29:35 15° 353° (N) 05:31:43 437.305
JAS-2 20 Dec 05:29:40 05:35:09 76° 102° (ESE) 05:40:18 435.910
PHONESAT 2.4 20 Dec 05:37:36 05:40:02 17° 351° (N) 05:42:28 2401.200-2431.200
MOZHAYETS 4 20 Dec 05:39:49 05:43:26 23° 264° (W) 05:47:05
CUTE-I 20 Dec 05:54:28 05:58:40 24° 97° (E) 06:02:52 437.470
GONETS M04 20 Dec 06:34:08 06:42:49 61° 278° (W) 06:51:33
PRISM 20 Dec 06:37:34 06:41:20 31° 261° (W) 06:45:07 437.425
SO-50 20 Dec 06:41:29 06:46:18 56° 61° (ENE) 06:51:06 436.795
AO-7 20 Dec 06:49:29 06:53:48 15° 303° (WNW) 06:58:08 29.400- 29.500
STRAND 1 20 Dec 06:55:17 07:00:21 67° 258° (WSW) 07:05:27 437.568
Cubesat XI-IV 20 Dec 07:00:03 07:05:20 69° 285° (WNW) 07:10:37 437.490
CUBESAT XI-V 20 Dec 07:00:07 07:04:37 47° 260° (W) 07:09:07 437.345
VERMONT LUNAR 20 Dec 07:06:24 07:08:48 17° 11° (N) 07:11:12 437.305
PHONESAT 2.4 20 Dec 07:17:16 07:19:39 16° 8° (N) 07:22:02 2401.200-2431.200
CUTE-I 20 Dec 07:34:01 07:38:40 32° 289° (WNW) 07:43:19 437.470
GOMX 1 20 Dec 08:17:00 08:18:40 12° 94° (E) 08:20:22 467.674
SO-50 20 Dec 08:24:23 08:26:20 12° 253° (WSW) 08:28:17 436.795
MaSat-1 20 Dec 08:28:08 08:30:17 28° 109° (ESE) 08:32:20 437.345
DOVE 4 20 Dec 08:43:24 08:46:39 17° 96° (E) 08:49:59 437.250
VERMONT LUNAR 20 Dec 08:44:10 08:47:38 52° 27° (NNE) 08:51:05 437.305
PHONESAT 2.4 20 Dec 08:55:28 08:58:56 42° 25° (NNE) 09:02:24 2401.200-2431.200
HO-68 20 Dec 08:56:07 09:02:59 49° 101° (E) 09:09:49 435.675
AAUSAT CUBESAT 2 20 Dec 09:01:09 09:04:44 26° 97° (E) 09:08:17 437.432
CINEMA 3 20 Dec 09:12:15 09:15:52 21° 96° (E) 09:19:33 145.822/145.860
CANX-2 20 Dec 09:12:21 09:16:40 72° 101° (E) 09:20:57 2200.000
BRITE-PL 20 Dec 09:22:55 09:27:45 84° 282° (WNW) 09:32:59 437.365/2234.400
COMPASS 1 20 Dec 09:35:33 09:39:50 89° 105° (ESE) 09:44:03 437.405
UWE-3 20 Dec 09:38:18 09:41:39 20° 96° (E) 09:45:01 435.000/436.395/437.385
FUNcube-1 20 Dec 09:39:15 09:42:03 16° 95° (E) 09:44:51 145.935
SEEDS 20 Dec 09:40:29 09:44:44 64° 284° (WNW) 09:48:57 437.485
CUSAT 1 20 Dec 09:40:45 09:43:49 49° 93° (E) 09:47:48 437.405
TIGRISAT 20 Dec 09:42:19 09:45:34 21° 70° (ENE) 09:48:53 435.000
CUTE 1.7 + AOD 2 20 Dec 09:43:22 09:47:33 50° 285° (WNW) 09:51:41 437.475
POPSAT HIP 1 20 Dec 09:49:15 09:51:45 16° 70° (ENE) 09:54:16 437.405
GOMX 1 20 Dec 09:52:07 09:56:52 57° 284° (WNW) 10:01:57 467.674
DX 1 20 Dec 09:54:48 09:58:54 41° 100° (E) 10:02:59 434.975-435.025
DELFI C3 20 Dec 09:55:04 09:59:03 47° 100° (E) 10:02:59 145.870
AISAT 20 Dec 09:56:20 09:58:05 12° 94° (E) 09:59:50 437.250
UNISAT 6 20 Dec 10:10:11 10:14:20 48° 75° (ENE) 10:18:35 437.425
HUMSAT D 20 Dec 10:15:52 10:19:22 24° 97° (E) 10:22:51 437.325/437.525
DUCHIFAT 1 20 Dec 10:16:04 10:19:50 33° 73° (ENE) 10:23:37 145.980
BUGSAT 1 20 Dec 10:17:33 10:21:02 27° 73° (ENE) 10:24:29 437.445
Oscar 11 20 Dec 10:17:58 10:22:19 69° 283° (WNW) 10:26:37 145.826/435.025
DOVE 4 20 Dec 10:19:53 10:24:23 39° 286° (WNW) 10:29:06 437.250
VERMONT LUNAR 20 Dec 10:23:04 10:25:45 20° 219° (SW) 10:28:26 437.305
UKube-1 20 Dec 10:26:11 10:30:31 80° 283° (WNW) 10:34:50 .
QB50P2 20 Dec 10:28:56 10:33:01 51° 75° (ENE) 10:37:07 145.880/145.840
DANDE 20 Dec 10:30:44 10:33:36 34° 284° (WNW) 10:37:14 436.750
PHONESAT 2.4 20 Dec 10:34:23 10:37:32 28° 217° (SW) 10:40:41 2401.200-2431.200
CUBEBUG 2 20 Dec 10:34:29 10:39:09 74° 283° (WNW) 10:43:54 437.445
AAUSAT CUBESAT 2 20 Dec 10:37:16 10:40:09 18° 289° (WNW) 10:43:01 437.432
RS-15 20 Dec 10:37:25 10:46:36 32° 105° (ESE) 10:55:37 29.354- 29.394
POLYITAN 1 20 Dec 10:37:32 10:41:41 67° 76° (ENE) 10:45:53 437.675
NANOSAT C BR1 20 Dec 10:40:07 10:44:18 72° 77° (ENE) 10:48:29 145.865
ANTELSAT 20 Dec 10:41:55 10:46:12 66° 259° (W) 10:50:36 437.575/2403.000
HO-68 20 Dec 10:44:41 10:50:15 25° 295° (WNW) 10:55:49 435.675
ZACube-1 20 Dec 10:47:02 10:51:35 74° 283° (WNW) 10:56:10 437.345
VELOX 1 20 Dec 10:47:33 10:51:53 53° 101° (E) 10:56:12 145.980
CINEMA 3 20 Dec 10:48:46 10:52:59 31° 287° (WNW) 10:57:19 145.822/145.860
ESTCUBE 1 20 Dec 10:49:27 10:52:42 20° 96° (E) 10:55:57 437.505/2401.250
QB50P1 20 Dec 10:54:26 10:58:38 74° 258° (WSW) 11:02:50 145.935-145.965
YUBILEINY 20 Dec 10:57:18 11:05:26 43° 79° (E) 11:13:32 435.215
UWE-3 20 Dec 11:14:06 11:18:06 30° 287° (WNW) 11:22:10 435.000/436.395/437.385
FUNcube-1 20 Dec 11:14:16 11:18:24 35° 286° (WNW) 11:22:34 145.935
O/OREOS (USA 219) 20 Dec 11:17:07 11:21:39 74° 71° (ENE) 11:26:10 437.305
TIGRISAT 20 Dec 11:18:42 11:22:08 24° 264° (W) 11:25:40 435.000
POPSAT HIP 1 20 Dec 11:23:39 11:27:21 30° 262° (W) 11:31:05 437.405
JUGNU 20 Dec 11:29:54 11:34:19 21° 166° (SSE) 11:38:43 437.505
AISAT 20 Dec 11:30:38 11:34:49 42° 286° (WNW) 11:39:01 437.250
50 SAT 20 Dec 11:31:51 11:35:49 44° 285° (WNW) 11:39:46 437.505
DX 1 20 Dec 11:32:48 11:34:43 13° 292° (WNW) 11:36:38 434.975-435.025
CUBEBUG 1 20 Dec 11:37:50 11:42:10 76° 102° (ESE) 11:46:30 437.445
HUMSAT D 20 Dec 11:51:41 11:54:59 22° 289° (WNW) 11:58:17 437.325/437.525
DUCHIFAT 1 20 Dec 11:53:36 11:55:43 14° 265° (W) 11:57:51 145.980
BUGSAT 1 20 Dec 11:53:53 11:56:28 16° 264° (W) 11:59:03 437.445
ISS 20 Dec 12:15:23 12:17:28 16° 126° (SE) 12:19:34 145.825
ESTCUBE 1 20 Dec 12:25:44 12:29:30 27° 288° (WNW) 12:33:15 437.505/2401.250
BEESAT 3 20 Dec 12:26:29 12:29:28 20° 110° (ESE) 12:32:30 437.485
VELOX 1 20 Dec 12:27:23 12:27:56 10° 293° (WNW) 12:28:30 145.980
SRMSAT 20 Dec 12:33:07 12:37:03 18° 164° (SSE) 12:40:59 437.500
TISAT 1 20 Dec 12:45:04 12:49:17 75° 283° (WNW) 12:53:30 437.305
SPROUT 20 Dec 12:47:15 12:51:33 76° 283° (WNW) 12:55:50 437.525
RS-15 20 Dec 12:47:31 12:58:13 57° 301° (WNW) 13:08:56 29.354- 29.394
YUBILEINY 20 Dec 12:54:31 13:01:51 32° 274° (W) 13:09:14 435.215
BEESAT 2 20 Dec 13:04:55 13:08:53 55° 114° (ESE) 13:12:56 435.950
JUGNU 20 Dec 13:17:41 13:22:52 31° 176° (S) 13:28:03 437.505
SWISSCUBE 20 Dec 13:22:44 13:27:06 36° 99° (E) 13:31:27 437.505
ITUPSAT 1 20 Dec 13:23:10 13:27:26 32° 98° (E) 13:31:40 437.325
PCSat 20 Dec 13:27:07 13:32:21 53° 110° (ESE) 13:37:36 145.827
Oscar 19 20 Dec 13:27:19 13:32:26 80° 258° (WSW) 13:37:36 437.125/150
Gurwin Techsat 1B 20 Dec 13:36:55 13:41:09 25° 70° (ENE) 13:45:23 435.225
M-CUBED/EXP-1 PRIME 20 Dec 13:41:35 13:44:12 16° 98° (E) 13:46:40 437.505
ITAMSAT 1 20 Dec 13:42:36 13:47:35 49° 73° (ENE) 13:52:34 435.822/435.867
BEESAT 20 Dec 13:47:30 13:52:15 66° 102° (ESE) 13:56:57 436.000
ISS 20 Dec 13:50:53 13:53:50 30° 319° (NW) 13:56:48 145.825
AO-7 20 Dec 13:59:39 14:02:33 12° 55° (NE) 14:05:27 29.400- 29.500
BEESAT 3 20 Dec 14:04:05 14:07:27 25° 303° (WNW) 14:10:52 437.485
AIST 2 20 Dec 14:08:29 14:12:37 59° 298° (WNW) 14:16:50 435.215
SRMSAT 20 Dec 14:20:40 14:25:44 29° 173° (S) 14:30:47 437.500
BEESAT 2 20 Dec 14:46:29 14:47:26 11° 309° (NW) 14:48:23 435.950
AUBIESAT-1 20 Dec 14:49:42 14:53:52 65° 289° (WNW) 14:57:38 437.475
STARS 20 Dec 14:52:16 14:56:27 40° 99° (E) 15:00:37 437.465
KKS-1 20 Dec 14:55:14 14:59:42 71° 102° (ESE) 15:04:10 437.445
SWISSCUBE 20 Dec 15:01:34 15:04:37 17° 291° (WNW) 15:07:41 437.505
ITUPSAT 1 20 Dec 15:01:43 15:05:02 19° 291° (WNW) 15:08:20 437.325
JUGNU 20 Dec 15:06:22 15:11:29 30° 186° (S) 15:16:34 437.505
RS-15 20 Dec 15:09:05 15:13:35 13° 328° (NNW) 15:18:08 29.354- 29.394
PCSat 20 Dec 15:12:36 15:16:01 17° 305° (NW) 15:19:28 145.827
M-CUBED/EXP-1 PRIME 20 Dec 15:15:40 15:19:14 27° 293° (WNW) 15:22:33 437.505
Gurwin Techsat 1B 20 Dec 15:16:17 15:20:54 30° 262° (W) 15:25:33 435.225
HORYU 2 20 Dec 15:18:13 15:22:38 71° 258° (WSW) 15:27:07 437.375
ITAMSAT 1 20 Dec 15:24:32 15:27:14 14° 266° (W) 15:29:56 435.822/435.867
JAS-2 20 Dec 15:35:00 15:40:27 22° 67° (ENE) 15:45:38 435.910
AO-7 20 Dec 15:45:39 15:53:55 75° 71° (ENE) 16:02:15 29.400- 29.500
SRMSAT 20 Dec 16:09:19 16:14:29 31° 184° (S) 16:19:38 437.500
AIST 1 20 Dec 16:25:37 16:29:49 47° 93° (E) 16:34:01
STARS 20 Dec 16:30:20 16:32:32 14° 292° (WNW) 16:34:44 437.465
Cubesat XI-IV 20 Dec 16:41:33 16:41:57 10° 64° (ENE) 16:42:22 437.490
GONETS M04 20 Dec 16:52:03 17:00:32 52° 80° (E) 17:08:54
JUGNU 20 Dec 16:55:59 17:00:00 19° 195° (SSW) 17:04:01 437.505
CUTE-I 20 Dec 17:10:54 17:14:56 22° 69° (ENE) 17:18:57 437.470
JAS-2 20 Dec 17:17:13 17:24:56 63° 259° (WSW) 17:32:08 435.910
MOZHAYETS 4 20 Dec 17:40:09 17:44:40 57° 284° (WNW) 17:49:09
AO-7 20 Dec 17:42:08 17:47:12 17° 265° (W) 17:52:19 29.400- 29.500
SRMSAT 20 Dec 17:58:46 18:03:11 22° 193° (SSW) 18:07:35 437.500
Cubesat XI-IV 20 Dec 18:16:00 18:21:20 76° 258° (WSW) 18:26:40 437.490
PRISM 20 Dec 18:26:18 18:30:22 57° 101° (E) 18:34:24 437.425
CUTE-I 20 Dec 18:49:55 18:54:43 34° 261° (W) 18:59:32 437.470
GONETS M04 20 Dec 18:49:59 18:56:44 26° 275° (W) 19:03:28
CUBESAT XI-V 20 Dec 19:02:53 19:07:28 70° 101° (E) 19:12:02 437.345
STRAND 1 20 Dec 19:11:57 19:17:01 69° 102° (ESE) 19:22:05 437.568
HO-68 20 Dec 19:20:01 19:24:53 20° 63° (ENE) 19:29:46 435.675
DANDE 20 Dec 19:34:36 19:39:19 16° 71° (ENE) 19:44:14 436.750
MaSat-1 20 Dec 19:37:13 19:39:07 19° 252° (WSW) 19:41:06 437.345
RS-15 20 Dec 19:44:49 19:53:18 23° 44° (NE) 20:01:57 29.354- 29.394
CANX-2 20 Dec 20:00:17 20:03:41 24° 72° (ENE) 20:07:06 2200.000
COMPASS 1 20 Dec 20:21:47 20:25:21 27° 73° (ENE) 20:28:57 437.405
CUSAT 1 20 Dec 20:23:40 20:31:21 46° 79° (ENE) 20:39:22 437.405
ISS 20 Dec 20:24:16 20:26:21 16° 37° (NE) 20:28:26 145.825
SEEDS 20 Dec 20:26:59 20:30:55 39° 74° (ENE) 20:34:53 437.485
BRITE-PL 20 Dec 20:28:55 20:33:03 54° 76° (ENE) 20:37:06 437.365/2234.400
CUTE 1.7 + AOD 2 20 Dec 20:30:17 20:34:24 51° 76° (ENE) 20:38:33 437.475
DELFI C3 20 Dec 20:39:30 20:41:42 14° 70° (ENE) 20:43:54 145.870
DX 1 20 Dec 20:45:53 20:48:44 17° 70° (ENE) 20:51:36 434.975-435.025
SO-50 20 Dec 20:50:23 20:54:49 74° 115° (ESE) 20:59:24 436.795
STRAND 1 20 Dec 20:54:49 20:55:33 10° 295° (WNW) 20:56:18 437.568
GOMX 1 20 Dec 20:55:08 20:59:19 80° 77° (ENE) 21:03:27 467.674
HO-68 20 Dec 21:04:51 21:11:56 63° 257° (WSW) 21:19:03 435.675
Oscar 11 20 Dec 21:06:54 21:10:57 41° 74° (ENE) 21:15:02 145.826/435.025
DANDE 20 Dec 21:15:12 21:23:20 90° 264° (W) 21:32:04 436.750
UKube-1 20 Dec 21:15:33 21:19:34 38° 73° (ENE) 21:23:35 .
DOVE 4 20 Dec 21:20:10 21:24:17 69° 259° (W) 21:28:26 437.250
AAUSAT CUBESAT 2 20 Dec 21:21:19 21:25:25 55° 260° (W) 21:29:34 437.432
CUBEBUG 2 20 Dec 21:27:31 21:31:26 42° 74° (ENE) 21:35:25 437.445
CANX-2 20 Dec 21:36:21 21:39:30 20° 264° (W) 21:42:41 2200.000
ZACube-1 20 Dec 21:37:44 21:41:35 39° 74° (ENE) 21:45:31 437.345
VELOX 1 20 Dec 21:40:22 21:43:51 23° 71° (ENE) 21:47:19 145.980
CINEMA 3 20 Dec 21:44:47 21:48:52 62° 259° (W) 21:53:01 145.822/145.860
RS-15 20 Dec 21:55:38 22:07:06 89° 245° (WSW) 22:19:05 29.354- 29.394
COMPASS 1 20 Dec 21:58:16 22:01:01 17° 265° (W) 22:03:48 437.405
ISS 20 Dec 22:00:00 22:03:00 34° 231° (SW) 22:05:59 145.825
FUNcube-1 20 Dec 22:04:07 22:08:15 87° 78° (ENE) 22:12:29 145.935
UWE-3 20 Dec 22:05:12 22:09:20 73° 259° (W) 22:13:33 435.000/436.395/437.385
SEEDS 20 Dec 22:05:14 22:06:50 12° 266° (W) 22:08:27 437.485
CUSAT 1 20 Dec 22:07:04 22:14:11 34° 270° (W) 22:21:32 437.405
UNISAT 6 20 Dec 22:09:15 22:12:30 18° 95° (E) 22:15:44 437.425
DELFI C3 20 Dec 22:12:58 22:16:38 32° 262° (W) 22:20:20 145.870
50 SAT 20 Dec 22:14:10 22:18:00 47° 75° (ENE) 22:21:53 437.505
DX 1 20 Dec 22:20:55 22:24:42 29° 262° (W) 22:28:30 434.975-435.025
QB50P2 20 Dec 22:22:10 22:24:27 14° 95° (E) 22:26:43 145.880/145.840
AISAT 20 Dec 22:22:33 22:26:58 80° 77° (ENE) 22:31:23 437.250
PCSat 20 Dec 22:23:12 22:25:38 13° 53° (NE) 22:28:03 145.827
CUBEBUG 1 20 Dec 22:28:44 22:32:31 29° 73° (ENE) 22:36:17 437.445
BEESAT 3 20 Dec 22:28:54 22:32:37 31° 58° (ENE) 22:36:17 437.485
POLYITAN 1 20 Dec 22:30:25 22:33:24 18° 96° (E) 22:36:23 437.675
NANOSAT C BR1 20 Dec 22:32:28 22:35:30 19° 96° (E) 22:38:31 145.865
HUMSAT D 20 Dec 22:37:09 22:41:13 62° 259° (W) 22:45:20 437.325/437.525
AIST 2 20 Dec 22:37:20 22:40:00 16° 54° (NE) 22:42:38 435.215
ANTELSAT 20 Dec 22:40:07 22:44:37 42° 99° (E) 22:49:05 437.575/2403.000
Oscar 11 20 Dec 22:45:37 22:47:14 12° 266° (W) 22:48:51 145.826/435.025
QB50P1 20 Dec 22:46:19 22:50:01 28° 98° (E) 22:53:42 145.935-145.965
UKube-1 20 Dec 22:53:54 22:55:48 13° 265° (W) 22:57:43 .
DANDE 20 Dec 23:01:39 23:06:00 15° 275° (W) 23:10:30 436.750
CUBEBUG 2 20 Dec 23:07:43 23:08:18 10° 267° (W) 23:08:54 437.445
BEESAT 2 20 Dec 23:08:33 23:12:44 85° 63° (ENE) 23:16:50 435.950
POPSAT HIP 1 20 Dec 23:14:34 23:18:49 67° 101° (ESE) 23:23:04 437.405
TIGRISAT 20 Dec 23:15:22 23:20:04 75° 283° (WNW) 23:24:46 435.000
ZACube-1 20 Dec 23:16:46 23:18:06 11° 267° (W) 23:19:26 437.345
VELOX 1 20 Dec 23:16:48 23:20:16 23° 263° (W) 23:23:46 145.980
ESTCUBE 1 20 Dec 23:18:46 23:23:15 61° 259° (W) 23:27:45 437.505/2401.250
TISAT 1 20 Dec 23:32:01 23:35:51 35° 74° (ENE) 23:39:41 437.305
SPROUT 20 Dec 23:35:51 23:39:46 36° 74° (ENE) 23:43:41 437.525
BUGSAT 1 20 Dec 23:40:40 23:44:43 70° 283° (WNW) 23:48:47 437.445
DUCHIFAT 1 20 Dec 23:42:35 23:46:43 52° 285° (WNW) 23:50:51 145.980
UNISAT 6 20 Dec 23:45:03 23:49:15 33° 287° (WNW) 23:53:27 437.425
O/OREOS (USA 219) 20 Dec 23:45:46 23:48:42 17° 100° (E) 23:51:38 437.305
YUBILEINY 20 Dec 23:50:04 23:58:36 60° 91° (E) 00:07:07 435.215
QB50P2 20 Dec 23:56:31 00:00:23 34° 287° (WNW) 00:04:15 145.880/145.840
PCSat 21 Dec 00:04:07 00:09:31 71° 248° (WSW) 00:14:52 145.827
POLYITAN 1 21 Dec 00:05:39 00:09:16 27° 288° (WNW) 00:12:53 437.675
CUBEBUG 1 21 Dec 00:05:56 00:08:50 17° 264° (W) 00:11:44 437.445
NANOSAT C BR1 21 Dec 00:07:46 00:11:16 25° 288° (WNW) 00:14:47 145.865
BEESAT 3 21 Dec 00:07:59 00:10:29 16° 251° (WSW) 00:12:58 437.485
RS-15 21 Dec 00:11:41 00:18:04 17° 259° (W) 00:24:38 29.354- 29.394
AIST 2 21 Dec 00:14:48 00:18:42 36° 248° (WSW) 00:22:32 435.215
ANTELSAT 21 Dec 00:18:23 00:20:59 15° 292° (WNW) 00:23:35 437.575/2403.000
